Location: McFarlands Corners
(41.4117°N, 81.3382°W)
Time: 00:40:42
(UTC+00:00)

Vanguard 2 - All Passes

Search period start: 07 February 2026 00:00
Search period end: 17 February 2026 00:00
Orbit: 553 x 2897 km, 32.9° (Epoch: 6 February)

Date Brightness Start Highest point End Pass type
(mag) Time Alt. Az. Time Alt. Az. Time Alt. Az.
7 Feb - 14:42:56 10° SSW 14:46:15 22° SSE 14:50:23 10° ESE daylight
7 Feb - 16:48:42 10° WSW 16:53:27 38° S 17:00:38 10° ESE daylight
7 Feb - 18:55:36 10° WSW 19:01:33 32° SSW 19:10:39 10° SE daylight
7 Feb - 21:04:45 10° WSW 21:10:30 17° SSW 21:17:50 10° S daylight
8 Feb - 14:54:28 10° SW 14:58:01 25° SSE 15:02:30 10° ESE daylight
8 Feb - 17:00:37 10° WSW 17:05:20 37° S 17:12:26 10° ESE daylight
8 Feb - 19:07:48 10° WSW 19:13:30 27° SSW 19:21:50 10° SE daylight
8 Feb - 21:18:39 10° SW 21:22:25 13° SSW 21:26:48 10° S daylight
9 Feb - 15:06:10 10° SW 15:09:48 28° SSE 15:14:31 10° ESE daylight
9 Feb - 17:12:35 10° WSW 17:17:14 34° S 17:24:07 10° SE daylight
9 Feb - 19:20:12 10° WSW 19:25:26 22° SSW 19:32:43 10° SSE daylight
10 Feb - 13:12:39 10° S 13:14:42 14° SSE 13:16:50 10° SE daylight
10 Feb - 15:17:56 10° SW 15:21:39 30° S 15:26:27 10° ESE daylight
10 Feb - 17:24:37 10° WSW 17:29:09 29° S 17:35:41 10° SE daylight
10 Feb - 19:32:55 10° WSW 19:37:23 17° SSW 19:43:10 10° SSE daylight
11 Feb - 13:23:47 10° SSW 13:26:28 17° SSE 13:29:17 10° ESE daylight
11 Feb - 15:29:47 10° WSW 15:33:30 30° S 15:38:20 10° ESE daylight
11 Feb - 17:36:45 10° WSW 17:41:03 25° SSW 17:47:05 10° SE daylight
11 Feb - 19:46:28 10° SW 19:49:20 12° SSW 19:52:42 10° S daylight
12 Feb - 13:35:14 10° SW 13:38:16 21° SSE 13:41:28 10° ESE daylight
12 Feb - 15:41:42 10° WSW 15:45:22 29° S 15:50:07 10° ESE daylight
12 Feb - 17:49:03 10° WSW 17:52:59 20° SSW 17:58:13 10° SSE daylight
13 Feb - 11:42:19 10° S 11:43:00 10° SSE 11:43:41 10° SSE visible
13 Feb - 13:46:52 10° SW 13:50:05 24° S 13:53:31 10° ESE daylight
13 Feb - 15:53:41 10° WSW 15:57:15 26° S 16:01:48 10° SE daylight
13 Feb - 18:01:40 10° SW 18:04:55 16° SSW 18:08:56 10° SSE daylight
14 Feb - 11:52:26 10° SSW 11:54:49 14° SSE 11:57:02 10° SE visible
14 Feb - 13:58:37 10° SW 14:01:56 25° S 14:05:28 10° ESE daylight
14 Feb - 16:05:45 10° WSW 16:09:08 22° S 16:13:21 10° SE daylight
14 Feb - 18:15:10 10° SW 18:16:50 11° SSW 18:18:41 10° S daylight
15 Feb - 12:03:33 10° SSW 12:06:40 18° SSE 12:09:28 10° ESE daylight
15 Feb - 14:10:27 10° WSW 14:13:47 26° S 14:17:20 10° ESE daylight
15 Feb - 16:17:59 10° WSW 16:21:01 18° SSW 16:24:39 10° SSE daylight
16 Feb - 10:10:18 10° S 10:11:05 10° SSE 10:11:50 10° SSE visible
16 Feb - 12:14:58 10° SW 12:18:32 22° S 12:21:37 10° ESE daylight
16 Feb - 14:22:21 10° WSW 14:25:37 24° S 14:29:06 10° SE daylight
16 Feb - 16:30:30 10° SW 16:32:53 14° SSW 16:35:38 10° SSE daylight
